Regional Weather Roundup
Issued by NWS Cleveland, OH

Home | Current Version | Previous Version | Graphics & Text | Print | Product List | Glossary On
Versions: 1 2 3 4 5 6 7 8 9 10 11 12 13 14 15 16 17 18 19 20 21 22 23 24 25 26 27 28 29 30 31 32 33 34 35 36 37 38 39 40 41 42 43 44 45 46 47 48 49 50
000
ASUS41 KCLE 291800
RWRCLE
OHIO REGIONAL WEATHER ROUNDUP
NATIONAL WEATHER SERVICE WILMINGTON, OH
200 PM EDT SAT APR 29 2017

NOTE: "FAIR" INDICATES FEW OR NO CLOUDS BELOW 12,000 FEET WITH NO
SIGNIFICANT WEATHER AND/OR OBSTRUCTIONS TO VISIBILITY.

OHZ001>008-015>018-024>027-034-035-043-044-291900-
   NORTHWEST OHIO

CITY           SKY/WX    TMP DP  RH WIND       PRES   REMARKS
DEFIANCE       LGT RAIN  46  43  89 NE18G25   30.12F
FINDLAY        LGT RAIN  48  43  82 NE16G26   30.15R
TOLEDO EXPRESS CLOUDY    44  44 100 NE14      30.19F
TOLEDO EXEC    CLOUDY    46  43  89 NE12G20   30.20F
LIMA           LGT RAIN  49  48  97 NE15G21   30.11R
$$

OHZ009>014-019>023-028>033-038-089-291900-
   NORTHEAST OHIO

CITY           SKY/WX    TMP DP  RH WIND       PRES   REMARKS
CLE-HOPKINS    CLOUDY    50  45  83 N15       30.18F
CLE-LAKEFRONT  CLOUDY    48  44  86 N20       30.16F
CUY CO. ARPT   CLOUDY    50  48  93 N12       30.16F FOG
LORAIN-ELYRIA  CLOUDY    46  42  86 NE14      30.17S
ASHTABULA      CLOUDY    51  50  96 N7        30.17F FOG
AKRON-CANTON   CLOUDY    58  54  86 NE3       30.12R FOG
WOOSTER        NOT AVBL
MANSFIELD      LGT RAIN  49  49 100 NE9       30.13F
YOUNGSTOWN     LGT RAIN  55  53  93 E14       30.08F
$$

OHZ042-051>053-060>062-070>072-077>081-291900-
  SOUTHWEST OHIO

CITY           SKY/WX    TMP DP  RH WIND       PRES   REMARKS
CINC-COVINGTON PTSUNNY   73  65  75 SE10      30.06F
CINC-LUNKEN    FAIR      73  66  78 E8        30.07F
HAMILTON       FAIR      72  66  81 SE6       30.08F
DAYTON         NOT AVBL
WRIGHT-PAT AFB NOT AVBL
DAYTON GENERAL FAIR      71  65  81 S8        30.07F
WILMINGTON     FAIR      70  64  81 SE6       30.09F
$$

OHZ036-037-039>041-045>050-054>059-063>069-073>076-082>088-291900-
  CENTRAL AND SOUTHEAST OHIO

CITY           SKY/WX    TMP DP  RH WIND       PRES   REMARKS
COLUMBUS       CLOUDY    65  63  93 SW9       30.10F
OSU AIRPORT    FAIR      68  65  90 S7        30.10F
BOLTON FIELD   MOSUNNY   66  64  94 S3        30.10F
RICKENBACK AFB NOT AVBL
NEWARK         PTSUNNY   67  63  87 S5        30.11S
MARION         CLOUDY    52  49  89 E9        30.11F
LANCASTER      FAIR      70  63  78 SE3       30.11F
ZANESVILLE     FAIR      65  61  87 SW6       30.12S
NEW PHILLY     PTSUNNY   65  63  93 VRB3      30.12R
$$




USA.gov is the U.S. government's official web portal to all federal, state and local government web resources and services.